Showing default

CARTOSAT 2F, 43111

Orbit data source: Space-Track

CARTOSAT 2F, 43111 is a payload satellite owned by ISRO (IN) in SSO that was launched on Fri, 12 Jan 2018 UTC via a PSLV-XL launch vehicle from the Sirharikota (SRI). Payload-class satellites include a variety of spacecraft equipped with specific instruments for various scientific and technological missions. These include communications satellites like Starlink; space stations such as the ISS; scientific satellites like the Hubble; Earth observation satellites from companies like Planet Labs, Umbra, and HawkEye 360; GPS; miniature CubeSats for education and research; and military/defense satellites.

Loading next visibility...
Identifier
43111, 2018-004A
Orbit
SSO
Country
Flag of ININ / IND
Related business
Manufacturer
ISRO
Mission
Operational Defense Imaging
Bus & Motor
IRS-2, AOCS
Mass
712 kg wet, 639 kg dry
Launch date (UTC)
2018-01-12 (8 years ago)
Launch vehicle
PSLV-XL
Launch site
Sirharikota (SRI)
Object type
Payload
Rocket body
Debris
Shape & HBR
Hex Cyl + 2 Pan, 4.0 m
Radar Cross Section
9.780 m², Large (>1 m²)

Expand to show TLE details & history
Last TLE update: 10 hours ago

TLE from 10 hours ago
0 CARTOSAT 2F
1 43111U 18004A   26105.90085711  .00002429  00000-0  11823-3 0  9993
2 43111  97.4097 166.3737 0002544 117.2865 242.8629 15.19314172457874
Epoch: 2026-04-15T21:37Z
TLE epoch observation values (Epoch: 2026-04-15T21:37:14.054Z)
Latitude
-0.00002°
Longitude
-1.99097°
Altitude
511.801 km
Speed
7.607 km/s
True Right ascension
11h 05m 29s
True Declination
0° 00' 00"
Sunlit
Object was in full shadow at epoch
Visualization orbit readout
Latitude
Unknown
Longitude
Unknown
Altitude
Unknown
Speed
Unknown
Apparent Right ascension
Unknown
Apparent Declination
Unknown
Sunlit
N/A
Visualization observer readout
Local Sidereal Time
13:50:54
Azimuth
Unknown
Elevation
Unknown
Doppler factor
Unknown
Orbital elements
Apogee altitude
506.63 km
Perigee altitude
503.128 km
Semi-major axis
6,883.016 km
Eccentricity
0.00025
Inclination
97.4097°
RAAN
166.3737°
Arg. of periapsis
117.2865°
True anomaly
242.83696°
Mean anomaly
242.8629°
Eccentric anomaly
242.84993°
Mean motion
3.8008 °/min
Orbital period
94.72 mins
BSTAR
0.00011823
Loading maneuver chart data...
Computing Atmospheric mass density...

Documentation

Showing up to 5 results
|